Newton, KS

8:26 AM CDT on April 30, 2017 (GMT -0500)
Newton City County

Weather History for KEWK - March, 2014

Change the Weather History Date:

Tuesday, March 11, 2014

  Actual Average Record
Temperature  
Mean Temperature 51 °F -  
Max Temperature 69 °F 49 °F 75 °F (2015)
Min Temperature 33 °F 28 °F 6 °F (1998)
Degree Days  
Heating Degree Days 14    
Growing Degree Days 1 (Base 50)    
Moisture  
Dew Point 36 °F    
Average Humidity 52    
Maximum Humidity 81    
Minimum Humidity 31    
Precipitation  
Precipitation 0.01 in - - ()
Sea Level Pressure  
Sea Level Pressure 29.63 in    
Wind  
Wind Speed 19 mph (WSW)    
Max Wind Speed 38 mph    
Max Gust Speed 52 mph    
Visibility 10 miles    
Events      
Averages and records for this station are not official NWS values.
T = Trace of Precipitation, MM = Missing Value Source: NWS Daily Summary

Daily Weather History Graph

Daily Weather History Graph

Search for Another Location

Airport or City:

Trip Planner

Search our weather history database for the weather conditions in past years. The results will help you decide how hot, cold, wet, or windy it might be!

Date:

Astronomy

Mar. 11, 2014 Rise Set
Actual Time 7:46 AM CDT 7:32 PM CDT
Civil Twilight 7:19 AM CDT 7:58 PM CDT
Nautical Twilight 6:49 AM CDT 8:29 PM CDT
Astronomical Twilight 6:18 AM CDT 9:00 PM CDT
Moon 3:13 PM CDT (3/11) 4:37 AM CDT (3/11)
Length of Visible Light 12h 38m
Length of Day
11h 46m
Waxing Gibbous, 78% of the Moon is Illuminated
Mar 11
Waxing Gibbous
Mar 16
Full
Mar 23
Last Quarter
Mar 30
New
Apr 7
First Quarter

Hourly Weather History & Observations

Time (CDT) Temp. Windchill Dew Point Humidity Pressure Visibility Wind Dir Wind Speed Gust Speed Precip Events Conditions
12:15 AM 53.6 °F - 28.4 °F 38% 29.70 in 10.0 mi South 12.7 mph - N/A   Clear
12:35 AM 53.6 °F - 28.4 °F 38% 29.69 in 10.0 mi South 12.7 mph - N/A   Clear
12:55 AM 53.6 °F - 28.4 °F 38% 29.68 in 10.0 mi South 15.0 mph - N/A   Clear
1:15 AM 55.4 °F - 28.4 °F 36% 29.67 in 10.0 mi South 16.1 mph - N/A   Clear
1:35 AM 55.4 °F - 28.4 °F 36% 29.66 in 10.0 mi South 16.1 mph 20.7 mph N/A   Clear
1:55 AM 55.4 °F - 30.2 °F 38% 29.65 in 10.0 mi South 16.1 mph - N/A   Clear
2:15 AM 55.4 °F - 30.2 °F 38% 29.64 in 10.0 mi South 17.3 mph - N/A   Clear
2:35 AM 55.4 °F - 30.2 °F 38% 29.63 in 10.0 mi South 17.3 mph - N/A   Clear
2:55 AM 55.4 °F - 32.0 °F 41% 29.62 in 10.0 mi South 13.8 mph - N/A   Clear
3:15 AM 53.6 °F - 32.0 °F 44% 29.61 in 10.0 mi South 16.1 mph - N/A   Clear
3:35 AM 53.6 °F - 33.8 °F 47% 29.60 in 10.0 mi South 15.0 mph - N/A   Clear
3:55 AM 53.6 °F - 33.8 °F 47% 29.58 in 10.0 mi South 17.3 mph - N/A   Clear
4:15 AM 51.8 °F - 33.8 °F 50% 29.57 in 10.0 mi South 12.7 mph - N/A   Clear
4:35 AM 50.0 °F - 33.8 °F 54% 29.56 in 10.0 mi South 12.7 mph - N/A   Clear
4:55 AM 48.2 °F - 33.8 °F 58% 29.55 in 10.0 mi South 12.7 mph - N/A   Clear
5:15 AM 48.2 °F - 35.6 °F 62% 29.54 in 10.0 mi South 12.7 mph - N/A   Clear
5:35 AM 48.2 °F - 35.6 °F 62% 29.54 in 10.0 mi South 11.5 mph - N/A   Clear
5:55 AM 48.2 °F - 37.4 °F 66% 29.54 in 10.0 mi South 11.5 mph - N/A   Clear
6:15 AM 50.0 °F - 39.2 °F 66% 29.53 in 10.0 mi South 17.3 mph - N/A   Clear
6:35 AM 51.8 °F - 39.2 °F 62% 29.52 in 10.0 mi South 17.3 mph - N/A   Clear
6:55 AM 51.8 °F - 41.0 °F 67% 29.51 in 10.0 mi South 17.3 mph - N/A   Clear
7:15 AM 51.8 °F - 41.0 °F 67% 29.51 in 10.0 mi South 16.1 mph - N/A   Clear
7:35 AM 51.8 °F - 42.8 °F 71% 29.51 in 10.0 mi South 18.4 mph - N/A   Clear
7:55 AM 51.8 °F - 42.8 °F 71% 29.50 in 10.0 mi South 18.4 mph - N/A   Clear
8:15 AM 51.8 °F - 42.8 °F 71% 29.49 in 10.0 mi South 17.3 mph - N/A   Clear
8:35 AM 53.6 °F - 42.8 °F 67% 29.49 in 10.0 mi South 19.6 mph 25.3 mph N/A   Clear
8:55 AM 53.6 °F - 42.8 °F 67% 29.49 in 10.0 mi South 17.3 mph 24.2 mph N/A   Clear
9:15 AM 55.4 °F - 44.6 °F 67% 29.48 in 10.0 mi South 20.7 mph - N/A   Clear
9:35 AM 57.2 °F - 44.6 °F 63% 29.48 in 10.0 mi South 18.4 mph 26.5 mph N/A   Clear
9:55 AM 59.0 °F - 46.4 °F 63% 29.48 in 10.0 mi SSW 19.6 mph 23.0 mph N/A   Clear
10:15 AM 60.8 °F - 44.6 °F 55% 29.48 in 10.0 mi SSW 24.2 mph 28.8 mph N/A   Clear
10:35 AM 62.6 °F - 44.6 °F 52% 29.47 in 10.0 mi SSW 23.0 mph 29.9 mph N/A   Clear
10:55 AM 64.4 °F - 44.6 °F 49% 29.47 in 10.0 mi SSW 23.0 mph 28.8 mph N/A   Clear
11:15 AM 64.4 °F - 44.6 °F 49% 29.47 in 10.0 mi SSW 19.6 mph 26.5 mph N/A   Clear
11:35 AM 66.2 °F - 44.6 °F 46% 29.46 in 10.0 mi SSW 19.6 mph - N/A   Clear
11:55 AM 68.0 °F - 44.6 °F 43% 29.46 in 10.0 mi SW 17.3 mph 23.0 mph N/A   Clear
12:15 PM 68.0 °F - 44.6 °F 43% 29.46 in 10.0 mi WSW 20.7 mph 24.2 mph N/A   Clear
12:35 PM 68.0 °F - 44.6 °F 43% 29.46 in 10.0 mi SW 17.3 mph - N/A   Clear
12:55 PM 69.8 °F - 44.6 °F 40% 29.47 in 10.0 mi West 15.0 mph 21.9 mph N/A   Clear
1:15 PM 68.0 °F - 44.6 °F 43% 29.47 in 10.0 mi WSW 12.7 mph 21.9 mph N/A   Clear
1:35 PM 68.0 °F - 44.6 °F 43% 29.48 in 10.0 mi WSW 11.5 mph 20.7 mph N/A   Clear
1:55 PM 69.8 °F - 42.8 °F 38% 29.48 in 10.0 mi West 10.4 mph 19.6 mph N/A   Clear
2:15 PM 69.8 °F - 44.6 °F 40% 29.47 in 10.0 mi NW 16.1 mph 19.6 mph N/A   Clear
2:35 PM 69.8 °F - 42.8 °F 38% 29.47 in 10.0 mi NW 10.4 mph - N/A   Clear
2:55 PM 68.0 °F - 39.2 °F 35% 29.48 in 10.0 mi NW 9.2 mph - N/A   Clear
3:15 PM 60.8 °F - 30.2 °F 31% 29.49 in 10.0 mi NW 34.5 mph 44.9 mph N/A   Clear
3:35 PM 59.0 °F - 32.0 °F 36% 29.52 in 10.0 mi NNW 26.5 mph 35.7 mph N/A   Clear
3:55 PM 60.8 °F - 33.8 °F 36% 29.53 in 10.0 mi NNW 29.9 mph 39.1 mph N/A   Clear
4:15 PM 59.0 °F - 33.8 °F 39% 29.55 in 10.0 mi North 33.4 mph 40.3 mph N/A   Clear
4:35 PM 57.2 °F - 33.8 °F 41% 29.57 in 10.0 mi NNW 31.1 mph 41.4 mph N/A   Clear
4:55 PM 57.2 °F - 33.8 °F 41% 29.59 in 10.0 mi North 33.4 mph 40.3 mph N/A   Clear
5:15 PM 53.6 °F - 32.0 °F 44% 29.61 in 10.0 mi North 34.5 mph 41.4 mph N/A   Clear
5:35 PM 53.6 °F - 32.0 °F 44% 29.64 in 10.0 mi North 29.9 mph 40.3 mph N/A   Clear
5:55 PM 53.6 °F - 30.2 °F 41% 29.66 in 10.0 mi North 31.1 mph 43.7 mph N/A   Clear
6:15 PM 51.8 °F - 32.0 °F 47% 29.68 in 10.0 mi North 35.7 mph 42.6 mph N/A   Clear
6:35 PM 51.8 °F - 30.2 °F 44% 29.71 in 10.0 mi North 33.4 mph 48.3 mph N/A   Scattered Clouds
6:55 PM 48.2 °F - 30.2 °F 50% 29.73 in 10.0 mi North 35.7 mph 47.2 mph N/A   Overcast
7:15 PM 46.4 °F 36.7 °F 30.2 °F 53% 29.76 in 10.0 mi North 33.4 mph 48.3 mph N/A   Overcast
7:35 PM 46.4 °F 37.2 °F 30.2 °F 53% 29.79 in 10.0 mi North 29.9 mph 41.4 mph N/A   Overcast
7:55 PM 44.6 °F 34.1 °F 30.2 °F 57% 29.81 in 10.0 mi North 34.5 mph 44.9 mph N/A   Overcast
8:15 PM 46.4 °F 36.4 °F 30.2 °F 53% 29.84 in 10.0 mi North 35.7 mph 51.8 mph N/A   Overcast
8:35 PM 44.6 °F 34.6 °F 30.2 °F 57% 29.87 in 10.0 mi North 31.1 mph 44.9 mph N/A   Overcast
8:55 PM 42.8 °F 31.1 °F 30.2 °F 61% 29.89 in 10.0 mi North 38.0 mph 44.9 mph N/A   Overcast
9:15 PM 41.0 °F 29.0 °F 30.2 °F 65% 29.92 in 10.0 mi North 35.7 mph 49.5 mph N/A   Overcast
9:35 PM 39.2 °F 26.8 °F 30.2 °F 70% 29.92 in 10.0 mi North 33.4 mph 49.5 mph N/A   Overcast
9:55 PM 39.2 °F 27.0 °F 28.4 °F 65% 29.95 in 10.0 mi North 32.2 mph 47.2 mph N/A   Overcast
10:15 PM 39.2 °F 27.2 °F 28.4 °F 65% 29.97 in 10.0 mi North 31.1 mph 41.4 mph N/A   Overcast
10:35 PM 37.4 °F 24.0 °F 28.4 °F 70% 30.00 in 10.0 mi North 35.7 mph 42.6 mph N/A   Overcast
10:55 PM 35.6 °F 22.7 °F 28.4 °F 75% 30.04 in 7.0 mi North 28.8 mph 40.3 mph N/A   Overcast
11:15 PM 33.8 °F 20.3 °F 28.4 °F 81% 30.06 in 9.0 mi North 28.8 mph 39.1 mph 0.01 in   Overcast
11:35 PM 33.8 °F 19.0 °F 28.4 °F 81% 30.07 in 10.0 mi North 35.7 mph 44.9 mph 0.01 in   Overcast
11:55 PM 33.8 °F 20.3 °F 28.4 °F 81% 30.10 in 10.0 mi North 28.8 mph 42.6 mph 0.01 in   Overcast